User: anonymous
Location: Vale
(35.4830°N, 81.3830°W)
Time: 17:59:29
(UTC-04:00)
Language:

Cosmos 2237 Rocket - Orbit

View from above orbital plane
View from above orbital plane
View from above satellite
View from above satellite

Ground track
Ground track

The orbit data is extracted from the following two-line orbital elements,

1 22566U 93016B   14261.44463359 -.00000099  00000-0 -26838-4 0  1489
2 22566 071.0105 011.6006 0011712 228.1484 131.8639 14.14850781109439
Epoch (UTC): 18 September 2014 10:40:16
Eccentricity: 0.0011712
inclination: 71.0105°
perigee height: 834 km
apogee height: 851 km
right ascension of ascending node: 11.6006°
argument of perigee: 228.1484°
revolutions per day: 14.14850781
mean anomaly at epoch: 131.8639°
orbit number at epoch: 10943

The dashed part of the orbit path shows where the satellite is in the earth's shadow,  

DLR